contact:dominique.lefevre@mio.osupytheas.fr, maurice.libes@osupytheas.fr, didier.mallarino@osupytheas.fr
Project:EMSO http://www.emso-fr.org/EMSO-France
Depth: 2436.0 m
Title:EMSO Ligure Ouest : Data MII capteur MICROCAT
DateTime_Computer,Latitude,Longitude,Temperature,Conductivity,Pressure,DateTime_Instrument
DateTime_Computer,Latitude,Longitude,degC,S m-1,dbar,DateTime_Instrument
2022-12-15T00:00:02Z,42.805,6.029,13.3009,4.60090,2470.53,2022-12-15T02:05:52Z
2022-12-15T00:03:05Z,42.805,6.029,13.3010,4.60094,2470.567,2022-12-15T02:08:55Z
2022-12-15T00:06:08Z,42.805,6.029,13.3010,4.60087,2470.53,2022-12-15T02:11:58Z
2022-12-15T00:09:11Z,42.805,6.029,13.3012,4.60084,2470.53,2022-12-15T02:15:01Z
2022-12-15T00:12:14Z,42.805,6.029,13.3011,4.60087,2470.53,2022-12-15T02:18:04Z
2022-12-15T00:15:17Z,42.805,6.029,13.3010,4.60084,2470.53,2022-12-15T02:21:07Z
2022-12-15T00:18:20Z,42.805,6.029,13.3009,4.60090,2470.544,2022-12-15T02:24:10Z
2022-12-15T00:21:23Z,42.805,6.029,13.3008,4.60087,2470.507,2022-12-15T02:27:14Z
2022-12-15T00:24:26Z,42.805,6.029,13.3013,4.60085,2470.52,2022-12-15T02:30:17Z
2022-12-15T00:27:29Z,42.805,6.029,13.3012,4.60085,2470.567,2022-12-15T02:33:20Z
2022-12-15T00:30:33Z,42.805,6.029,13.3011,4.60081,2470.53,2022-12-15T02:36:23Z
2022-12-15T00:33:36Z,42.805,6.029,13.3014,4.60077,2470.53,2022-12-15T02:39:26Z
2022-12-15T00:36:39Z,42.805,6.029,13.3011,4.60079,2470.53,2022-12-15T02:42:29Z
2022-12-15T00:39:42Z,42.805,6.029,13.3012,4.60079,2470.483,2022-12-15T02:45:32Z
2022-12-15T00:42:45Z,42.805,6.029,13.3013,4.60079,2470.507,2022-12-15T02:48:35Z
2022-12-15T00:45:48Z,42.805,6.029,13.3013,4.60070,2470.53,2022-12-15T02:51:38Z
2022-12-15T00:48:51Z,42.805,6.029,13.3011,4.60072,2470.544,2022-12-15T02:54:41Z
2022-12-15T00:51:54Z,42.805,6.029,13.3009,4.60075,2470.53,2022-12-15T02:57:44Z
2022-12-15T00:54:57Z,42.805,6.029,13.3011,4.60073,2470.507,2022-12-15T03:00:48Z
2022-12-15T00:58:00Z,42.805,6.029,13.3008,4.60074,2470.497,2022-12-15T03:03:51Z
2022-12-15T01:01:03Z,42.805,6.029,13.3012,4.60074,2470.53,2022-12-15T03:06:54Z
2022-12-15T01:04:06Z,42.805,6.029,13.3011,4.60070,2470.53,2022-12-15T03:09:57Z
2022-12-15T01:07:10Z,42.805,6.029,13.3011,4.60072,2470.53,2022-12-15T03:13:00Z
2022-12-15T01:10:13Z,42.805,6.029,13.3007,4.60075,2470.53,2022-12-15T03:16:03Z
2022-12-15T01:13:16Z,42.805,6.029,13.3014,4.60077,2470.567,2022-12-15T03:19:06Z
2022-12-15T01:16:19Z,42.805,6.029,13.3010,4.60081,2470.567,2022-12-15T03:22:09Z
2022-12-15T01:19:22Z,42.805,6.029,13.3007,4.60084,2470.507,2022-12-15T03:25:12Z
2022-12-15T01:22:25Z,42.805,6.029,13.3014,4.60082,2470.52,2022-12-15T03:28:15Z
2022-12-15T01:25:28Z,42.805,6.029,13.3011,4.60081,2470.52,2022-12-15T03:31:18Z
2022-12-15T01:28:31Z,42.805,6.029,13.3009,4.60079,2470.544,2022-12-15T03:34:21Z
2022-12-15T01:31:34Z,42.805,6.029,13.3009,4.60076,2470.544,2022-12-15T03:37:25Z
2022-12-15T01:34:37Z,42.805,6.029,13.3011,4.60075,2470.497,2022-12-15T03:40:28Z
2022-12-15T01:37:40Z,42.805,6.029,13.3010,4.60074,2470.52,2022-12-15T03:43:31Z
2022-12-15T01:40:43Z,42.805,6.029,13.3013,4.60077,2470.53,2022-12-15T03:46:34Z
2022-12-15T01:43:47Z,42.805,6.029,13.3011,4.60072,2470.507,2022-12-15T03:49:37Z
2022-12-15T01:46:50Z,42.805,6.029,13.3009,4.60069,2470.52,2022-12-15T03:52:40Z
2022-12-15T01:49:53Z,42.805,6.029,13.3015,4.60074,2470.483,2022-12-15T03:55:43Z
2022-12-15T01:52:56Z,42.805,6.029,13.3013,4.60067,2470.544,2022-12-15T03:58:46Z
2022-12-15T01:55:59Z,42.805,6.029,13.3011,4.60068,2470.53,2022-12-15T04:01:49Z
2022-12-15T01:59:02Z,42.805,6.029,13.3009,4.60069,2470.53,2022-12-15T04:04:52Z
2022-12-15T02:02:05Z,42.805,6.029,13.3011,4.60067,2470.544,2022-12-15T04:07:55Z
2022-12-15T02:05:08Z,42.805,6.029,13.3013,4.60069,2470.53,2022-12-15T04:10:58Z
2022-12-15T02:08:11Z,42.805,6.029,13.3011,4.60070,2470.567,2022-12-15T04:14:02Z
2022-12-15T02:11:14Z,42.805,6.029,13.3014,4.60069,2470.53,2022-12-15T04:17:05Z
2022-12-15T02:14:17Z,42.805,6.029,13.3011,4.60068,2470.53,2022-12-15T04:20:08Z
2022-12-15T02:17:21Z,42.805,6.029,13.3009,4.60065,2470.53,2022-12-15T04:23:11Z
2022-12-15T02:20:24Z,42.805,6.029,13.3014,4.60068,2470.52,2022-12-15T04:26:14Z
2022-12-15T02:23:27Z,42.805,6.029,13.3012,4.60069,2470.53,2022-12-15T04:29:17Z
2022-12-15T02:26:30Z,42.805,6.029,13.3009,4.60070,2470.567,2022-12-15T04:32:20Z
2022-12-15T02:29:33Z,42.805,6.029,13.3010,4.60069,2470.52,2022-12-15T04:35:23Z
2022-12-15T02:32:36Z,42.805,6.029,13.3009,4.60069,2470.53,2022-12-15T04:38:26Z
2022-12-15T02:35:39Z,42.805,6.029,13.3011,4.60067,2470.507,2022-12-15T04:41:29Z
2022-12-15T02:38:42Z,42.805,6.029,13.3009,4.60070,2470.507,2022-12-15T04:44:32Z
2022-12-15T02:41:45Z,42.805,6.029,13.3011,4.60068,2470.507,2022-12-15T04:47:36Z
2022-12-15T02:44:48Z,42.805,6.029,13.3012,4.60069,2470.52,2022-12-15T04:50:39Z
2022-12-15T02:47:51Z,42.805,6.029,13.3014,4.60068,2470.52,2022-12-15T04:53:42Z
2022-12-15T02:50:54Z,42.805,6.029,13.3011,4.60067,2470.507,2022-12-15T04:56:45Z
2022-12-15T02:53:58Z,42.805,6.029,13.3009,4.60066,2470.483,2022-12-15T04:59:48Z
2022-12-15T02:57:01Z,42.805,6.029,13.3014,4.60064,2470.497,2022-12-15T05:02:51Z
2022-12-15T03:00:04Z,42.805,6.029,13.3011,4.60064,2470.507,2022-12-15T05:05:54Z
2022-12-15T03:03:07Z,42.805,6.029,13.3008,4.60066,2470.497,2022-12-15T05:08:57Z
2022-12-15T03:06:10Z,42.805,6.029,13.3008,4.60063,2470.544,2022-12-15T05:12:00Z
2022-12-15T03:09:13Z,42.805,6.029,13.3013,4.60067,2470.46,2022-12-15T05:15:03Z
2022-12-15T03:12:16Z,42.805,6.029,13.3011,4.60067,2470.474,2022-12-15T05:18:06Z
2022-12-15T03:15:19Z,42.805,6.029,13.3009,4.60064,2470.483,2022-12-15T05:21:10Z
2022-12-15T03:18:22Z,42.805,6.029,13.3011,4.60064,2470.46,2022-12-15T05:24:13Z
2022-12-15T03:21:25Z,42.805,6.029,13.3014,4.60064,2470.52,2022-12-15T05:27:16Z
2022-12-15T03:24:28Z,42.805,6.029,13.3011,4.60066,2470.497,2022-12-15T05:30:19Z
2022-12-15T03:27:32Z,42.805,6.029,13.3012,4.60064,2470.507,2022-12-15T05:33:22Z
2022-12-15T03:30:35Z,42.805,6.029,13.3012,4.60067,2470.483,2022-12-15T05:36:25Z
2022-12-15T03:33:38Z,42.805,6.029,13.3011,4.60064,2470.47,2022-12-15T05:39:28Z
2022-12-15T03:36:41Z,42.805,6.029,13.3011,4.60068,2470.497,2022-12-15T05:42:31Z
2022-12-15T03:39:44Z,42.805,6.029,13.3009,4.60066,2470.497,2022-12-15T05:45:34Z
2022-12-15T03:42:47Z,42.805,6.029,13.3013,4.60064,2470.483,2022-12-15T05:48:37Z
2022-12-15T03:45:50Z,42.805,6.029,13.3009,4.60064,2470.483,2022-12-15T05:51:40Z
2022-12-15T03:48:53Z,42.805,6.029,13.3011,4.60066,2470.483,2022-12-15T05:54:44Z
2022-12-15T03:51:56Z,42.805,6.029,13.3011,4.60066,2470.507,2022-12-15T05:57:47Z
2022-12-15T03:54:59Z,42.805,6.029,13.3007,4.60066,2470.483,2022-12-15T06:00:50Z
2022-12-15T03:58:02Z,42.805,6.029,13.3014,4.60064,2470.483,2022-12-15T06:03:53Z
2022-12-15T04:01:05Z,42.805,6.029,13.3010,4.60064,2470.497,2022-12-15T06:06:56Z
2022-12-15T04:04:09Z,42.805,6.029,13.3012,4.60064,2470.46,2022-12-15T06:09:59Z
2022-12-15T04:07:12Z,42.805,6.029,13.3011,4.60064,2470.483,2022-12-15T06:13:02Z
2022-12-15T04:10:15Z,42.805,6.029,13.3014,4.60064,2470.507,2022-12-15T06:16:05Z
2022-12-15T04:13:18Z,42.805,6.029,13.3012,4.60067,2470.46,2022-12-15T06:19:08Z
2022-12-15T04:16:21Z,42.805,6.029,13.3011,4.60066,2470.52,2022-12-15T06:22:11Z
2022-12-15T04:19:24Z,42.805,6.029,13.3015,4.60064,2470.483,2022-12-15T06:25:14Z
2022-12-15T04:22:27Z,42.805,6.029,13.3015,4.60064,2470.507,2022-12-15T06:28:17Z
2022-12-15T04:25:30Z,42.805,6.029,13.3011,4.60063,2470.46,2022-12-15T06:31:21Z
2022-12-15T04:28:33Z,42.805,6.029,13.3010,4.60062,2470.52,2022-12-15T06:34:24Z
2022-12-15T04:31:36Z,42.805,6.029,13.3014,4.60063,2470.483,2022-12-15T06:37:27Z
2022-12-15T04:34:39Z,42.805,6.029,13.3012,4.60062,2470.483,2022-12-15T06:40:30Z
2022-12-15T04:37:43Z,42.805,6.029,13.3010,4.60065,2470.483,2022-12-15T06:43:33Z
2022-12-15T04:40:46Z,42.805,6.029,13.3014,4.60062,2470.483,2022-12-15T06:46:36Z
2022-12-15T04:43:49Z,42.805,6.029,13.3008,4.60064,2470.483,2022-12-15T06:49:39Z
2022-12-15T04:46:52Z,42.805,6.029,13.3013,4.60067,2470.544,2022-12-15T06:52:42Z
2022-12-15T04:49:55Z,42.805,6.029,13.3011,4.60065,2470.46,2022-12-15T06:55:45Z
2022-12-15T04:52:58Z,42.805,6.029,13.3010,4.60066,2470.483,2022-12-15T06:58:48Z
2022-12-15T04:56:01Z,42.805,6.029,13.3011,4.60066,2470.507,2022-12-15T07:01:51Z
2022-12-15T04:59:04Z,42.805,6.029,13.3015,4.60066,2470.483,2022-12-15T07:04:55Z
2022-12-15T05:02:07Z,42.805,6.029,13.3014,4.60063,2470.483,2022-12-15T07:07:58Z
2022-12-15T05:05:10Z,42.805,6.029,13.3014,4.60064,2470.52,2022-12-15T07:11:01Z
2022-12-15T05:08:13Z,42.805,6.029,13.3015,4.60063,2470.483,2022-12-15T07:14:04Z
2022-12-15T05:11:16Z,42.805,6.029,13.3011,4.60062,2470.483,2022-12-15T07:17:07Z
2022-12-15T05:14:20Z,42.805,6.029,13.3010,4.60063,2470.483,2022-12-15T07:20:10Z
2022-12-15T05:17:23Z,42.805,6.029,13.3008,4.60063,2470.507,2022-12-15T07:23:13Z
2022-12-15T05:20:26Z,42.805,6.029,13.3012,4.60063,2470.507,2022-12-15T07:26:16Z
2022-12-15T05:23:29Z,42.805,6.029,13.3012,4.60062,2470.483,2022-12-15T07:29:19Z
2022-12-15T05:26:32Z,42.805,6.029,13.3009,4.60064,2470.507,2022-12-15T07:32:22Z
2022-12-15T05:29:35Z,42.805,6.029,13.3011,4.60063,2470.507,2022-12-15T07:35:25Z
2022-12-15T05:32:38Z,42.805,6.029,13.3011,4.60064,2470.493,2022-12-15T07:38:29Z
2022-12-15T05:35:41Z,42.805,6.029,13.3012,4.60062,2470.497,2022-12-15T07:41:32Z
2022-12-15T05:38:44Z,42.805,6.029,13.3014,4.60064,2470.483,2022-12-15T07:44:35Z
2022-12-15T05:41:47Z,42.805,6.029,13.3012,4.60062,2470.507,2022-12-15T07:47:38Z
2022-12-15T05:44:50Z,42.805,6.029,13.3012,4.60064,2470.507,2022-12-15T07:50:41Z
2022-12-15T05:47:54Z,42.805,6.029,13.3014,4.60061,2470.497,2022-12-15T07:53:44Z
2022-12-15T05:50:57Z,42.805,6.029,13.3013,4.60064,2470.52,2022-12-15T07:56:47Z
2022-12-15T05:54:00Z,42.805,6.029,13.3010,4.60064,2470.483,2022-12-15T07:59:50Z
2022-12-15T05:57:03Z,42.805,6.029,13.3015,4.60062,2470.52,2022-12-15T08:02:53Z
2022-12-15T06:00:06Z,42.805,6.029,13.3011,4.60064,2470.52,2022-12-15T08:05:56Z
2022-12-15T06:03:09Z,42.805,6.029,13.3012,4.60063,2470.483,2022-12-15T08:08:59Z
2022-12-15T06:06:12Z,42.805,6.029,13.3011,4.60062,2470.483,2022-12-15T08:12:02Z
2022-12-15T06:09:15Z,42.805,6.029,13.3012,4.60062,2470.507,2022-12-15T08:15:06Z
2022-12-15T06:12:18Z,42.805,6.029,13.3010,4.60062,2470.507,2022-12-15T08:18:09Z
2022-12-15T06:15:21Z,42.805,6.029,13.3012,4.60062,2470.507,2022-12-15T08:21:12Z
2022-12-15T06:18:24Z,42.805,6.029,13.3009,4.60062,2470.483,2022-12-15T08:24:15Z
2022-12-15T06:21:27Z,42.805,6.029,13.3014,4.60063,2470.53,2022-12-15T08:27:18Z
2022-12-15T06:24:31Z,42.805,6.029,13.3014,4.60062,2470.483,2022-12-15T08:30:21Z
2022-12-15T06:27:34Z,42.805,6.029,13.3011,4.60064,2470.52,2022-12-15T08:33:24Z
2022-12-15T06:30:37Z,42.805,6.029,13.3012,4.60062,2470.544,2022-12-15T08:36:27Z
2022-12-15T06:33:40Z,42.805,6.029,13.3011,4.60061,2470.507,2022-12-15T08:39:30Z
2022-12-15T06:36:43Z,42.805,6.029,13.3013,4.60062,2470.507,2022-12-15T08:42:33Z
2022-12-15T06:39:46Z,42.805,6.029,13.3016,4.60063,2470.544,2022-12-15T08:45:36Z
2022-12-15T06:42:49Z,42.805,6.029,13.3012,4.60062,2470.507,2022-12-15T08:48:40Z
2022-12-15T06:45:52Z,42.805,6.029,13.3011,4.60063,2470.507,2022-12-15T08:51:43Z
2022-12-15T06:48:55Z,42.805,6.029,13.3010,4.60063,2470.53,2022-12-15T08:54:46Z
2022-12-15T06:51:58Z,42.805,6.029,13.3012,4.60064,2470.53,2022-12-15T08:57:49Z
2022-12-15T06:55:01Z,42.805,6.029,13.3011,4.60067,2470.507,2022-12-15T09:00:52Z
2022-12-15T06:58:05Z,42.805,6.029,13.3012,4.60063,2470.53,2022-12-15T09:03:55Z
2022-12-15T07:01:08Z,42.805,6.029,13.3015,4.60064,2470.507,2022-12-15T09:06:58Z
2022-12-15T07:04:11Z,42.805,6.029,13.3014,4.60067,2470.507,2022-12-15T09:10:01Z
2022-12-15T07:07:14Z,42.805,6.029,13.3009,4.60062,2470.553,2022-12-15T09:13:04Z
2022-12-15T07:10:17Z,42.805,6.029,13.3013,4.60063,2470.544,2022-12-15T09:16:07Z
2022-12-15T07:13:20Z,42.805,6.029,13.3010,4.60066,2470.544,2022-12-15T09:19:10Z
2022-12-15T07:16:23Z,42.805,6.029,13.3015,4.60063,2470.553,2022-12-15T09:22:14Z
2022-12-15T07:19:26Z,42.805,6.029,13.3013,4.60062,2470.507,2022-12-15T09:25:17Z
2022-12-15T07:22:29Z,42.805,6.029,13.3007,4.60066,2470.53,2022-12-15T09:28:20Z
2022-12-15T07:25:32Z,42.805,6.029,13.3012,4.60064,2470.53,2022-12-15T09:31:23Z
2022-12-15T07:28:35Z,42.805,6.029,13.3011,4.60063,2470.53,2022-12-15T09:34:26Z
2022-12-15T07:31:38Z,42.805,6.029,13.3011,4.60064,2470.53,2022-12-15T09:37:29Z
2022-12-15T07:34:42Z,42.805,6.029,13.3011,4.60062,2470.507,2022-12-15T09:40:32Z
2022-12-15T07:37:45Z,42.805,6.029,13.3011,4.60067,2470.567,2022-12-15T09:43:35Z
2022-12-15T07:40:48Z,42.805,6.029,13.3013,4.60064,2470.553,2022-12-15T09:46:38Z
2022-12-15T07:43:51Z,42.805,6.029,13.3011,4.60065,2470.53,2022-12-15T09:49:41Z
2022-12-15T07:46:54Z,42.805,6.029,13.3011,4.60064,2470.539,2022-12-15T09:52:44Z
2022-12-15T07:49:57Z,42.805,6.029,13.3010,4.60067,2470.53,2022-12-15T09:55:48Z
2022-12-15T07:53:00Z,42.805,6.029,13.3014,4.60062,2470.577,2022-12-15T09:58:51Z
2022-12-15T07:56:03Z,42.805,6.029,13.3013,4.60064,2470.577,2022-12-15T10:01:54Z
2022-12-15T07:59:06Z,42.805,6.029,13.3013,4.60064,2470.553,2022-12-15T10:04:57Z
2022-12-15T08:02:09Z,42.805,6.029,13.3014,4.60062,2470.577,2022-12-15T10:08:00Z
2022-12-15T08:05:12Z,42.805,6.029,13.3009,4.60064,2470.553,2022-12-15T10:11:03Z
2022-12-15T08:08:16Z,42.805,6.029,13.3012,4.60067,2470.53,2022-12-15T10:14:06Z
2022-12-15T08:11:19Z,42.805,6.029,13.3014,4.60063,2470.591,2022-12-15T10:17:09Z
2022-12-15T08:14:22Z,42.805,6.029,13.3014,4.60064,2470.553,2022-12-15T10:20:12Z
2022-12-15T08:17:25Z,42.805,6.029,13.3014,4.60067,2470.577,2022-12-15T10:23:15Z
2022-12-15T08:20:28Z,42.805,6.029,13.3014,4.60063,2470.591,2022-12-15T10:26:18Z
2022-12-15T08:23:31Z,42.805,6.029,13.3011,4.60062,2470.577,2022-12-15T10:29:22Z
2022-12-15T08:26:34Z,42.805,6.029,13.3014,4.60067,2470.6,2022-12-15T10:32:25Z
2022-12-15T08:29:37Z,42.805,6.029,13.3011,4.60063,2470.577,2022-12-15T10:35:28Z
2022-12-15T08:32:40Z,42.805,6.029,13.3011,4.60067,2470.553,2022-12-15T10:38:31Z
2022-12-15T08:35:43Z,42.805,6.029,13.3012,4.60064,2470.567,2022-12-15T10:41:34Z
2022-12-15T08:38:46Z,42.805,6.029,13.3012,4.60066,2470.6,2022-12-15T10:44:37Z
2022-12-15T08:41:50Z,42.805,6.029,13.3014,4.60064,2470.6,2022-12-15T10:47:40Z
2022-12-15T08:44:53Z,42.805,6.029,13.3013,4.60067,2470.591,2022-12-15T10:50:43Z
2022-12-15T08:47:56Z,42.805,6.029,13.3013,4.60064,2470.6,2022-12-15T10:53:46Z
2022-12-15T08:50:59Z,42.805,6.029,13.3011,4.60065,2470.591,2022-12-15T10:56:49Z
2022-12-15T08:54:02Z,42.805,6.029,13.3015,4.60069,2470.614,2022-12-15T10:59:52Z
2022-12-15T08:57:05Z,42.805,6.029,13.3011,4.60067,2470.6,2022-12-15T11:02:56Z
2022-12-15T09:00:08Z,42.805,6.029,13.3009,4.60066,2470.661,2022-12-15T11:05:59Z
2022-12-15T09:03:11Z,42.805,6.029,13.3013,4.60062,2470.6,2022-12-15T11:09:02Z
2022-12-15T09:06:14Z,42.805,6.029,13.3010,4.60062,2470.624,2022-12-15T11:12:05Z
2022-12-15T09:09:17Z,42.805,6.029,13.3012,4.60064,2470.6,2022-12-15T11:15:08Z
2022-12-15T09:12:20Z,42.805,6.029,13.3014,4.60064,2470.6,2022-12-15T11:18:11Z
2022-12-15T09:15:24Z,42.805,6.029,13.3010,4.60067,2470.6,2022-12-15T11:21:14Z
2022-12-15T09:18:27Z,42.805,6.029,13.3015,4.60062,2470.577,2022-12-15T11:24:17Z
2022-12-15T09:21:30Z,42.805,6.029,13.3014,4.60069,2470.6,2022-12-15T11:27:20Z
2022-12-15T09:24:33Z,42.805,6.029,13.3014,4.60064,2470.6,2022-12-15T11:30:23Z
2022-12-15T09:27:36Z,42.805,6.029,13.3008,4.60063,2470.637,2022-12-15T11:33:26Z
2022-12-15T09:30:39Z,42.805,6.029,13.3009,4.60062,2470.614,2022-12-15T11:36:30Z
2022-12-15T09:33:42Z,42.805,6.029,13.3013,4.60064,2470.661,2022-12-15T11:39:33Z
2022-12-15T09:36:45Z,42.805,6.029,13.3009,4.60067,2470.646,2022-12-15T11:42:36Z
2022-12-15T09:39:48Z,42.805,6.029,13.3012,4.60069,2470.646,2022-12-15T11:45:39Z
2022-12-15T09:42:51Z,42.805,6.029,13.3010,4.60064,2470.6,2022-12-15T11:48:42Z
2022-12-15T09:45:54Z,42.805,6.029,13.3013,4.60070,2470.646,2022-12-15T11:51:45Z
2022-12-15T09:48:58Z,42.805,6.029,13.3015,4.60069,2470.67,2022-12-15T11:54:48Z
2022-12-15T09:52:01Z,42.805,6.029,13.3011,4.60068,2470.661,2022-12-15T11:57:51Z
2022-12-15T09:55:04Z,42.805,6.029,13.3012,4.60067,2470.624,2022-12-15T12:00:54Z
2022-12-15T09:58:07Z,42.805,6.029,13.3015,4.60067,2470.624,2022-12-15T12:03:57Z
2022-12-15T10:01:10Z,42.805,6.029,13.3013,4.60068,2470.637,2022-12-15T12:07:01Z
2022-12-15T10:04:13Z,42.805,6.029,13.3016,4.60066,2470.646,2022-12-15T12:10:04Z
2022-12-15T10:07:16Z,42.805,6.029,13.3014,4.60064,2470.646,2022-12-15T12:13:07Z
2022-12-15T10:10:19Z,42.805,6.029,13.3017,4.60066,2470.661,2022-12-15T12:16:10Z
2022-12-15T10:13:22Z,42.805,6.029,13.3017,4.60066,2470.624,2022-12-15T12:19:13Z
2022-12-15T10:16:25Z,42.805,6.029,13.3014,4.60065,2470.646,2022-12-15T12:22:16Z
2022-12-15T10:19:28Z,42.805,6.029,13.3011,4.60069,2470.661,2022-12-15T12:25:19Z
2022-12-15T10:22:32Z,42.805,6.029,13.3014,4.60069,2470.646,2022-12-15T12:28:22Z
2022-12-15T10:25:35Z,42.805,6.029,13.3011,4.60069,2470.684,2022-12-15T12:31:25Z
2022-12-15T10:28:38Z,42.805,6.029,13.3013,4.60067,2470.646,2022-12-15T12:34:28Z
2022-12-15T10:31:41Z,42.805,6.029,13.3015,4.60069,2470.661,2022-12-15T12:37:31Z
2022-12-15T10:34:44Z,42.805,6.029,13.3012,4.60070,2470.67,2022-12-15T12:40:35Z
2022-12-15T10:37:47Z,42.805,6.029,13.3012,4.60067,2470.661,2022-12-15T12:43:38Z
2022-12-15T10:40:50Z,42.805,6.029,13.3009,4.60067,2470.693,2022-12-15T12:46:41Z
2022-12-15T10:43:53Z,42.805,6.029,13.3014,4.60070,2470.624,2022-12-15T12:49:44Z
2022-12-15T10:46:56Z,42.805,6.029,13.3014,4.60069,2470.684,2022-12-15T12:52:47Z
2022-12-15T10:49:59Z,42.805,6.029,13.3015,4.60068,2470.67,2022-12-15T12:55:50Z
2022-12-15T10:53:02Z,42.805,6.029,13.3015,4.60068,2470.67,2022-12-15T12:58:53Z
2022-12-15T10:56:06Z,42.805,6.029,13.3011,4.60064,2470.67,2022-12-15T13:01:56Z
2022-12-15T10:59:09Z,42.805,6.029,13.3011,4.60067,2470.646,2022-12-15T13:04:59Z
2022-12-15T11:02:12Z,42.805,6.029,13.3011,4.60064,2470.633,2022-12-15T13:08:02Z
2022-12-15T11:05:15Z,42.805,6.029,13.3009,4.60067,2470.684,2022-12-15T13:11:05Z
2022-12-15T11:08:18Z,42.805,6.029,13.3015,4.60066,2470.684,2022-12-15T13:14:09Z
2022-12-15T11:11:21Z,42.805,6.029,13.3014,4.60064,2470.624,2022-12-15T13:17:12Z
2022-12-15T11:14:24Z,42.805,6.029,13.3013,4.60066,2470.661,2022-12-15T13:20:15Z
2022-12-15T11:17:27Z,42.805,6.029,13.3009,4.60067,2470.67,2022-12-15T13:23:18Z
2022-12-15T11:20:30Z,42.805,6.029,13.3012,4.60067,2470.646,2022-12-15T13:26:21Z
2022-12-15T11:23:33Z,42.805,6.029,13.3015,4.60064,2470.67,2022-12-15T13:29:24Z
2022-12-15T11:26:36Z,42.805,6.029,13.3013,4.60064,2470.67,2022-12-15T13:32:27Z
2022-12-15T11:29:40Z,42.805,6.029,13.3013,4.60067,2470.707,2022-12-15T13:35:30Z
2022-12-15T11:32:43Z,42.805,6.029,13.3014,4.60066,2470.646,2022-12-15T13:38:33Z
2022-12-15T11:35:46Z,42.805,6.029,13.3011,4.60065,2470.693,2022-12-15T13:41:36Z
2022-12-15T11:38:49Z,42.805,6.029,13.3012,4.60069,2470.67,2022-12-15T13:44:40Z
2022-12-15T11:41:52Z,42.805,6.029,13.3011,4.60066,2470.67,2022-12-15T13:47:43Z
2022-12-15T11:44:55Z,42.805,6.029,13.3014,4.60067,2470.67,2022-12-15T13:50:46Z
2022-12-15T11:47:58Z,42.805,6.029,13.3009,4.60067,2470.684,2022-12-15T13:53:49Z
2022-12-15T11:51:01Z,42.805,6.029,13.3014,4.60067,2470.684,2022-12-15T13:56:52Z
2022-12-15T11:54:04Z,42.805,6.029,13.3011,4.60064,2470.67,2022-12-15T13:59:55Z
2022-12-15T11:57:07Z,42.805,6.029,13.3013,4.60066,2470.67,2022-12-15T14:02:58Z
2022-12-15T12:00:11Z,42.805,6.029,13.3015,4.60068,2470.707,2022-12-15T14:06:01Z
2022-12-15T12:03:14Z,42.805,6.029,13.3014,4.60066,2470.67,2022-12-15T14:09:04Z
2022-12-15T12:06:17Z,42.805,6.029,13.3012,4.60065,2470.67,2022-12-15T14:12:07Z
2022-12-15T12:09:20Z,42.805,6.029,13.3013,4.60067,2470.646,2022-12-15T14:15:10Z
2022-12-15T12:12:23Z,42.805,6.029,13.3014,4.60065,2470.646,2022-12-15T14:18:14Z
2022-12-15T12:15:26Z,42.805,6.029,13.3015,4.60068,2470.67,2022-12-15T14:21:17Z
2022-12-15T12:18:29Z,42.805,6.029,13.3013,4.60067,2470.693,2022-12-15T14:24:20Z
2022-12-15T12:21:32Z,42.805,6.029,13.3009,4.60064,2470.684,2022-12-15T14:27:23Z
2022-12-15T12:24:35Z,42.805,6.029,13.3014,4.60068,2470.684,2022-12-15T14:30:26Z
2022-12-15T12:27:38Z,42.805,6.029,13.3011,4.60070,2470.707,2022-12-15T14:33:29Z
2022-12-15T12:30:41Z,42.805,6.029,13.3012,4.60064,2470.717,2022-12-15T14:36:32Z
2022-12-15T12:33:44Z,42.805,6.029,13.3011,4.60064,2470.693,2022-12-15T14:39:35Z
2022-12-15T12:36:48Z,42.805,6.029,13.3012,4.60068,2470.693,2022-12-15T14:42:38Z
2022-12-15T12:39:51Z,42.805,6.029,13.3013,4.60066,2470.661,2022-12-15T14:45:41Z
2022-12-15T12:42:54Z,42.805,6.029,13.3014,4.60069,2470.684,2022-12-15T14:48:44Z
2022-12-15T12:45:57Z,42.805,6.029,13.3012,4.60066,2470.693,2022-12-15T14:51:48Z
2022-12-15T12:49:00Z,42.805,6.029,13.3016,4.60067,2470.693,2022-12-15T14:54:51Z
2022-12-15T12:52:03Z,42.805,6.029,13.3011,4.60064,2470.646,2022-12-15T14:57:54Z
2022-12-15T12:55:06Z,42.805,6.029,13.3014,4.60068,2470.693,2022-12-15T15:00:57Z
2022-12-15T12:58:09Z,42.805,6.029,13.3015,4.60067,2470.67,2022-12-15T15:04:00Z
2022-12-15T13:01:12Z,42.805,6.029,13.3011,4.60065,2470.67,2022-12-15T15:07:03Z
2022-12-15T13:04:15Z,42.805,6.029,13.3015,4.60066,2470.67,2022-12-15T15:10:06Z
2022-12-15T13:07:19Z,42.805,6.029,13.3014,4.60064,2470.646,2022-12-15T15:13:09Z
2022-12-15T13:10:22Z,42.805,6.029,13.3014,4.60067,2470.684,2022-12-15T15:16:12Z
2022-12-15T13:13:25Z,42.805,6.029,13.3014,4.60067,2470.684,2022-12-15T15:19:15Z
2022-12-15T13:16:28Z,42.805,6.029,13.3013,4.60067,2470.684,2022-12-15T15:22:19Z
2022-12-15T13:19:31Z,42.805,6.029,13.3012,4.60067,2470.679,2022-12-15T15:25:22Z
2022-12-15T13:22:34Z,42.805,6.029,13.3010,4.60067,2470.707,2022-12-15T15:28:25Z
2022-12-15T13:25:37Z,42.805,6.029,13.3015,4.60066,2470.646,2022-12-15T15:31:28Z
2022-12-15T13:28:40Z,42.805,6.029,13.3015,4.60067,2470.67,2022-12-15T15:34:31Z
2022-12-15T13:31:43Z,42.805,6.029,13.3014,4.60064,2470.707,2022-12-15T15:37:34Z
2022-12-15T13:34:46Z,42.805,6.029,13.3009,4.60066,2470.67,2022-12-15T15:40:37Z
2022-12-15T13:37:49Z,42.805,6.029,13.3009,4.60068,2470.67,2022-12-15T15:43:40Z
2022-12-15T13:40:53Z,42.805,6.029,13.3012,4.60065,2470.646,2022-12-15T15:46:43Z
2022-12-15T13:43:56Z,42.805,6.029,13.3011,4.60063,2470.646,2022-12-15T15:49:46Z
2022-12-15T13:46:59Z,42.805,6.029,13.3013,4.60065,2470.646,2022-12-15T15:52:49Z
2022-12-15T13:50:02Z,42.805,6.029,13.3014,4.60064,2470.646,2022-12-15T15:55:53Z
2022-12-15T13:53:05Z,42.805,6.029,13.3014,4.60067,2470.67,2022-12-15T15:58:56Z
2022-12-15T13:56:08Z,42.805,6.029,13.3011,4.60066,2470.661,2022-12-15T16:01:59Z
2022-12-15T13:59:11Z,42.805,6.029,13.3011,4.60069,2470.646,2022-12-15T16:05:02Z
2022-12-15T14:02:14Z,42.805,6.029,13.3008,4.60067,2470.67,2022-12-15T16:08:05Z
2022-12-15T14:05:17Z,42.805,6.029,13.3014,4.60069,2470.646,2022-12-15T16:11:08Z
2022-12-15T14:08:20Z,42.805,6.029,13.3011,4.60069,2470.661,2022-12-15T16:14:11Z
2022-12-15T14:11:23Z,42.805,6.029,13.3011,4.60068,2470.646,2022-12-15T16:17:14Z
2022-12-15T14:14:27Z,42.805,6.029,13.3014,4.60067,2470.693,2022-12-15T16:20:17Z
2022-12-15T14:17:30Z,42.805,6.029,13.3011,4.60068,2470.684,2022-12-15T16:23:20Z
2022-12-15T14:20:33Z,42.805,6.029,13.3011,4.60067,2470.661,2022-12-15T16:26:23Z
2022-12-15T14:23:36Z,42.805,6.029,13.3013,4.60065,2470.684,2022-12-15T16:29:27Z
2022-12-15T14:26:39Z,42.805,6.029,13.3014,4.60064,2470.624,2022-12-15T16:32:30Z
2022-12-15T14:29:42Z,42.805,6.029,13.3014,4.60068,2470.67,2022-12-15T16:35:33Z
2022-12-15T14:32:45Z,42.805,6.029,13.3014,4.60067,2470.624,2022-12-15T16:38:36Z
2022-12-15T14:35:48Z,42.805,6.029,13.3014,4.60067,2470.67,2022-12-15T16:41:39Z
2022-12-15T14:38:51Z,42.805,6.029,13.3011,4.60068,2470.646,2022-12-15T16:44:42Z
2022-12-15T14:41:54Z,42.805,6.029,13.3012,4.60068,2470.646,2022-12-15T16:47:45Z
2022-12-15T14:44:57Z,42.805,6.029,13.3016,4.60066,2470.661,2022-12-15T16:50:48Z
2022-12-15T14:48:01Z,42.805,6.029,13.3011,4.60066,2470.646,2022-12-15T16:53:51Z
2022-12-15T14:51:04Z,42.805,6.029,13.3013,4.60069,2470.624,2022-12-15T16:56:54Z
2022-12-15T14:54:07Z,42.805,6.029,13.3013,4.60067,2470.646,2022-12-15T16:59:58Z
2022-12-15T14:57:10Z,42.805,6.029,13.3013,4.60066,2470.646,2022-12-15T17:03:01Z
2022-12-15T15:00:13Z,42.805,6.029,13.3012,4.60067,2470.646,2022-12-15T17:06:04Z